Precipitable_Water
1.28 1.26 1.28 1.28 1.29 1.27 1.29 1.31 1.30 1.31 1.30 1.28 1.20 1.15 1.15 1.15 1.14 1.13 1.19 1.18 1.19 1.17 1.14 1.14 1.15 1.16 1.15 1.16 1.15 1.14 1.16 1.20 1.28 1.29 1.27 1.25 1.27 1.28 1.32 1.36 1.34 1.35 1.38 1.40 1.44 1.42 1.38 1.33 1.31 1.30 1.30 1.19 1.14 1.10 1.07 1.06 1.07 1.08 1.10 1.10 1.07 1.09 1.04 0.96 0.86 0.82 0.90 1.03 1.02 1.02 1.14 1.18 1.15 1.20 1.18 1.20 1.24 1.31 1.36 1.37 1.38 1.37 1.37 1.36 1.35
1.28 1.29 1.30 1.28 1.25 1.25 1.27 1.29 1.30 1.30 1.26 1.25 1.20 1.17 1.15 1.13 1.13 1.17 1.13 1.13 1.18 1.15 1.14 1.14 1.15 1.17 1.17 1.16 1.16 1.15 1.15 1.15 1.19 1.23 1.21 1.20 1.21 1.26 1.25 1.26 1.27 1.27 1.30 1.28 1.33 1.37 1.36 1.32 1.29 1.30 1.32 1.26 1.22 1.16 1.13 1.09 1.06 1.03 1.05 1.06 1.05 1.05 1.10 1.00 0.92 0.88 0.81 0.91 0.95 1.04 1.06 1.14 1.05 1.16 1.12 1.14 1.18 1.25 1.28 1.31 1.36 1.36 1.35 1.37 1.36
1.29 1.30 1.29 1.26 1.24 1.24 1.25 1.24 1.25 1.24 1.22 1.21 1.18 1.16 1.14 1.13 1.16 1.13 1.10 1.12 1.17 1.16 1.14 1.14 1.14 1.16 1.16 1.17 1.17 1.16 1.14 1.12 1.15 1.16 1.14 1.13 1.11 1.14 1.17 1.17 1.17 1.18 1.20 1.21 1.24 1.28 1.27 1.25 1.23 1.26 1.29 1.23 1.20 1.19 1.20 1.16 1.14 1.09 1.07 1.09 1.06 1.06 1.09 1.08 1.00 0.90 0.87 0.86 0.95 0.95 0.98 1.04 1.03 1.03 1.10 1.12 1.15 1.20 1.19 1.23 1.27 1.32 1.36 1.37 1.37
1.29 1.30 1.28 1.25 1.24 1.24 1.22 1.22 1.21 1.19 1.17 1.17 1.15 1.15 1.15 1.15 1.16 1.12 1.11 1.13 1.12 1.14 1.16 1.14 1.15 1.15 1.15 1.16 1.17 1.16 1.15 1.14 1.13 1.14 1.12 1.11 1.09 1.07 1.10 1.11 1.10 1.10 1.12 1.15 1.20 1.23 1.21 1.20 1.19 1.21 1.23 1.20 1.18 1.19 1.20 1.20 1.18 1.14 1.11 1.14 1.14 1.11 1.12 1.12 1.10 1.01 0.97 0.90 0.93 0.94 0.99 1.00 1.04 1.11 1.13 1.13 1.10 1.11 1.14 1.18 1.26 1.27 1.29 1.33 1.33
1.28 1.27 1.26 1.22 1.23 1.22 1.20 1.20 1.17 1.16 1.15 1.15 1.14 1.16 1.16 1.16 1.17 1.14 1.13 1.12 1.11 1.11 1.13 1.15 1.13 1.14 1.12 1.12 1.13 1.13 1.13 1.14 1.12 1.12 1.12 1.13 1.11 1.09 1.08 1.08 1.08 1.09 1.10 1.11 1.15 1.17 1.17 1.16 1.16 1.20 1.22 1.18 1.17 1.18 1.18 1.17 1.19 1.19 1.16 1.14 1.12 1.14 1.18 1.18 1.16 1.14 1.06 0.99 0.99 1.06 1.08 1.07 1.09 1.11 1.14 1.07 1.07 1.09 1.13 1.13 1.14 1.16 1.20 1.26 1.30
1.27 1.24 1.22 1.20 1.21 1.19 1.18 1.18 1.15 1.13 1.13 1.13 1.14 1.15 1.16 1.16 1.15 1.14 1.14 1.10 1.10 1.10 1.08 1.10 1.10 1.09 1.10 1.11 1.12 1.12 1.13 1.15 1.14 1.13 1.12 1.13 1.13 1.11 1.11 1.09 1.08 1.09 1.11 1.13 1.15 1.16 1.14 1.13 1.14 1.18 1.19 1.17 1.14 1.16 1.19 1.18 1.21 1.20 1.19 1.19 1.19 1.19 1.17 1.18 1.20 1.18 1.14 1.08 1.06 1.04 1.11 1.08 1.06 1.06 1.10 1.11 1.06 1.02 1.03 1.08 1.14 1.17 1.15 1.12 1.18
1.24 1.21 1.19 1.17 1.17 1.16 1.17 1.16 1.16 1.15 1.15 1.15 1.16 1.16 1.16 1.15 1.14 1.11 1.14 1.12 1.10 1.08 1.08 1.07 1.09 1.09 1.10 1.13 1.13 1.13 1.14 1.17 1.17 1.16 1.16 1.16 1.14 1.12 1.09 1.09 1.09 1.08 1.09 1.11 1.15 1.18 1.17 1.16 1.15 1.19 1.19 1.18 1.15 1.15 1.18 1.21 1.22 1.21 1.23 1.23 1.25 1.25 1.22 1.21 1.20 1.17 1.14 1.11 1.10 1.11 1.07 1.12 1.12 1.03 1.11 1.16 1.13 1.11 1.03 1.00 0.99 1.07 1.14 1.12 1.09
1.23 1.21 1.20 1.17 1.15 1.13 1.14 1.16 1.16 1.16 1.18 1.18 1.17 1.17 1.16 1.16 1.14 1.15 1.16 1.12 1.09 1.08 1.07 1.05 1.06 1.09 1.10 1.13 1.16 1.20 1.20 1.19 1.19 1.18 1.17 1.16 1.15 1.13 1.11 1.08 1.07 1.08 1.08 1.10 1.14 1.17 1.18 1.18 1.19 1.20 1.19 1.18 1.15 1.14 1.17 1.15 1.18 1.16 1.19 1.20 1.20 1.20 1.18 1.19 1.19 1.17 1.13 1.11 1.08 1.05 1.08 1.07 1.10 1.14 1.18 1.17 1.08 1.07 1.09 1.04 0.95 0.96 1.03 1.12 1.14
1.18 1.17 1.17 1.14 1.12 1.13 1.15 1.17 1.19 1.19 1.20 1.19 1.17 1.15 1.15 1.15 1.16 1.15 1.13 1.10 1.10 1.10 1.10 1.10 1.08 1.07 1.10 1.12 1.15 1.20 1.20 1.17 1.17 1.14 1.12 1.12 1.14 1.12 1.11 1.10 1.08 1.07 1.07 1.08 1.12 1.15 1.19 1.20 1.21 1.20 1.20 1.17 1.17 1.17 1.18 1.19 1.16 1.11 1.11 1.14 1.13 1.12 1.11 1.11 1.10 1.09 1.07 1.06 1.04 1.06 1.04 1.03 1.04 1.03 1.00 1.00 0.96 0.91 1.01 1.09 1.01 1.01 1.04 1.06 1.11
1.18 1.16 1.13 1.11 1.13 1.16 1.18 1.19 1.19 1.19 1.18 1.14 1.12 1.13 1.15 1.16 1.15 1.12 1.09 1.08 1.07 1.09 1.10 1.13 1.13 1.10 1.08 1.11 1.15 1.17 1.16 1.15 1.13 1.12 1.13 1.11 1.12 1.13 1.15 1.14 1.12 1.09 1.07 1.07 1.10 1.14 1.16 1.19 1.21 1.22 1.22 1.22 1.21 1.20 1.19 1.19 1.21 1.19 1.13 1.13 1.11 1.09 1.08 1.06 1.05 1.04 1.02 0.99 0.98 0.97 0.96 0.95 0.97 0.99 0.97 0.98 1.03 1.07 1.06 1.04 0.99 1.02 1.09 1.07 1.08
1.22 1.20 1.16 1.19 1.21 1.21 1.20 1.18 1.19 1.16 1.14 1.13 1.13 1.14 1.13 1.14 1.13 1.11 1.09 1.09 1.07 1.07 1.10 1.11 1.13 1.14 1.13 1.12 1.13 1.15 1.14 1.13 1.11 1.12 1.12 1.14 1.17 1.17 1.15 1.14 1.15 1.14 1.12 1.09 1.07 1.11 1.17 1.21 1.23 1.25 1.27 1.26 1.24 1.22 1.21 1.22 1.23 1.23 1.22 1.24 1.26 1.22 1.15 1.11 1.08 1.08 1.05 1.03 1.03 1.03 1.00 0.97 1.00 1.04 1.04 1.05 1.08 1.05 1.03 1.07 1.07 1.08 1.04 0.98 0.90
1.29 1.28 1.27 1.29 1.27 1.25 1.22 1.22 1.19 1.17 1.17 1.15 1.14 1.14 1.15 1.15 1.12 1.12 1.12 1.11 1.11 1.12 1.11 1.11 1.14 1.16 1.18 1.18 1.17 1.15 1.14 1.13 1.14 1.15 1.15 1.15 1.19 1.20 1.21 1.19 1.18 1.17 1.16 1.16 1.15 1.17 1.19 1.21 1.24 1.27 1.27 1.26 1.25 1.27 1.27 1.26 1.26 1.26 1.27 1.29 1.32 1.35 1.34 1.26 1.18 1.16 1.16 1.11 1.11 1.12 1.13 1.10 1.11 1.16 1.20 1.21 1.19 1.22 1.24 1.24 1.19 1.14 1.10 1.05 1.02
1.35 1.35 1.36 1.35 1.33 1.31 1.30 1.26 1.22 1.20 1.19 1.19 1.20 1.20 1.18 1.17 1.15 1.14 1.12 1.15 1.17 1.15 1.13 1.15 1.15 1.18 1.19 1.16 1.15 1.16 1.15 1.16 1.17 1.18 1.18 1.18 1.19 1.22 1.24 1.23 1.21 1.19 1.20 1.21 1.21 1.21 1.22 1.23 1.24 1.28 1.30 1.32 1.36 1.38 1.36 1.35 1.37 1.39 1.42 1.46 1.49 1.51 1.51 1.51 1.55 1.53 1.53 1.44 1.36 1.33 1.36 1.38 1.34 1.34 1.43 1.44 1.48 1.38 1.38 1.36 1.35 1.34 1.31 1.26 1.20
1.40 1.40 1.41 1.41 1.40 1.39 1.37 1.34 1.30 1.28 1.29 1.29 1.28 1.26 1.23 1.18 1.19 1.22 1.22 1.22 1.18 1.16 1.17 1.17 1.18 1.19 1.18 1.16 1.15 1.18 1.17 1.18 1.19 1.19 1.19 1.20 1.21 1.23 1.24 1.23 1.24 1.25 1.25 1.25 1.25 1.26 1.27 1.27 1.27 1.28 1.35 1.43 1.49 1.52 1.55 1.57 1.58 1.59 1.59 1.61 1.63 1.66 1.68 1.68 1.71 1.78 1.80 1.72 1.65 1.55 1.59 1.71 1.58 1.60 1.72 1.78 1.67 1.57 1.56 1.51 1.53 1.50 1.45 1.41 1.47
1.32 1.36 1.39 1.44 1.48 1.48 1.47 1.43 1.40 1.41 1.40 1.37 1.35 1.31 1.27 1.26 1.26 1.27 1.26 1.21 1.18 1.15 1.15 1.16 1.18 1.20 1.20 1.19 1.18 1.18 1.17 1.19 1.22 1.21 1.20 1.20 1.23 1.26 1.27 1.27 1.28 1.29 1.31 1.34 1.34 1.34 1.36 1.42 1.46 1.47 1.51 1.57 1.63 1.65 1.65 1.66 1.67 1.68 1.69 1.70 1.75 1.78 1.83 1.85 1.92 1.97 1.95 1.93 1.89 1.82 1.78 1.84 1.84 1.82 1.87 1.93 1.87 1.82 1.80 1.75 1.74 1.72 1.70 1.73 1.70
1.31 1.34 1.35 1.42 1.48 1.55 1.58 1.58 1.57 1.56 1.53 1.49 1.42 1.35 1.32 1.29 1.26 1.29 1.29 1.27 1.27 1.27 1.25 1.25 1.23 1.21 1.20 1.20 1.19 1.16 1.17 1.21 1.22 1.22 1.23 1.25 1.29 1.31 1.31 1.30 1.30 1.33 1.38 1.44 1.48 1.51 1.55 1.57 1.57 1.57 1.59 1.63 1.68 1.72 1.75 1.78 1.78 1.76 1.76 1.79 1.82 1.87 1.88 1.99 2.08 2.11 2.08 2.05 2.01 1.95 1.92 1.95 2.00 1.99 1.99 2.00 2.00 2.00 1.98 1.95 1.91 1.80 1.74 1.67 1.57
1.34 1.37 1.39 1.43 1.48 1.54 1.59 1.62 1.65 1.66 1.67 1.63 1.58 1.53 1.47 1.43 1.42 1.44 1.36 1.32 1.29 1.27 1.24 1.24 1.26 1.25 1.21 1.21 1.19 1.16 1.16 1.24 1.27 1.29 1.31 1.34 1.36 1.34 1.35 1.38 1.41 1.43 1.45 1.50 1.55 1.58 1.60 1.63 1.64 1.64 1.66 1.68 1.74 1.80 1.84 1.88 1.83 1.80 1.79 1.77 1.79 1.80 1.80 2.00 2.06 2.07 2.06 2.04 1.99 1.96 1.97 2.00 2.03 2.05 2.05 2.04 2.03 2.06 2.00 1.87 1.70 1.75 1.72 1.61 1.62
1.38 1.41 1.43 1.49 1.54 1.59 1.61 1.63 1.63 1.67 1.69 1.66 1.66 1.66 1.65 1.63 1.58 1.59 1.49 1.42 1.36 1.33 1.32 1.32 1.33 1.31 1.24 1.19 1.22 1.20 1.24 1.34 1.37 1.37 1.38 1.41 1.42 1.40 1.41 1.42 1.43 1.46 1.48 1.54 1.58 1.60 1.63 1.66 1.69 1.70 1.69 1.73 1.81 1.85 1.90 1.92 1.84 1.81 1.81 1.79 1.74 1.73 1.78 2.00 2.03 2.01 1.99 1.97 1.92 1.97 2.01 1.95 1.96 1.99 1.98 2.00 2.00 2.00 1.91 1.74 1.71 1.75 1.65 1.62 1.59
1.42 1.45 1.50 1.57 1.61 1.64 1.67 1.68 1.66 1.66 1.66 1.69 1.72 1.70 1.70 1.68 1.69 1.69 1.63 1.59 1.51 1.48 1.45 1.40 1.38 1.37 1.31 1.28 1.33 1.34 1.34 1.38 1.40 1.39 1.40 1.43 1.44 1.45 1.46 1.45 1.43 1.45 1.48 1.49 1.56 1.60 1.63 1.68 1.71 1.73 1.75 1.79 1.86 1.90 1.94 1.96 1.90 1.87 1.88 1.84 1.74 1.68 1.75 1.96 1.93 1.93 1.93 1.87 1.88 1.93 1.86 1.83 1.85 1.83 1.83 1.88 1.90 1.92 1.92 1.89 1.87 1.75 1.64 1.64 1.65
1.49 1.58 1.64 1.67 1.66 1.66 1.70 1.70 1.70 1.69 1.68 1.71 1.74 1.75 1.78 1.77 1.74 1.73 1.72 1.70 1.64 1.59 1.54 1.50 1.46 1.43 1.43 1.41 1.41 1.40 1.37 1.39 1.41 1.41 1.42 1.44 1.46 1.49 1.51 1.46 1.42 1.44 1.48 1.49 1.49 1.55 1.62 1.67 1.73 1.76 1.79 1.83 1.89 1.94 1.96 1.97 1.92 1.91 1.91 1.84 1.77 1.68 1.87 1.94 1.97 1.99 2.01 1.98 1.90 1.89 1.80 1.77 1.81 1.74 1.73 1.71 1.72 1.75 1.75 1.75 1.74 1.73 1.67 1.64 1.65
1.62 1.65 1.67 1.67 1.66 1.65 1.68 1.71 1.71 1.74 1.76 1.74 1.76 1.76 1.78 1.76 1.77 1.74 1.72 1.76 1.75 1.69 1.63 1.59 1.57 1.54 1.55 1.51 1.47 1.44 1.42 1.40 1.43 1.44 1.45 1.47 1.50 1.51 1.51 1.49 1.49 1.48 1.47 1.49 1.52 1.54 1.60 1.68 1.74 1.81 1.85 1.89 1.91 1.93 1.95 1.97 1.97 1.94 1.91 1.87 1.89 1.95 1.98 1.91 1.94 2.03 2.01 2.00 1.82 1.70 1.73 1.77 1.76 1.74 1.71 1.69 1.69 1.69 1.64 1.57 1.53 1.50 1.47 1.42 1.40
1.63 1.61 1.59 1.58 1.61 1.64 1.65 1.70 1.75 1.76 1.79 1.80 1.76 1.74 1.78 1.80 1.78 1.77 1.76 1.75 1.75 1.74 1.73 1.69 1.64 1.60 1.60 1.59 1.52 1.47 1.48 1.46 1.46 1.47 1.48 1.50 1.53 1.55 1.52 1.51 1.55 1.53 1.51 1.53 1.58 1.61 1.66 1.73 1.79 1.86 1.89 1.90 1.91 1.93 1.96 1.97 2.00 2.00 2.02 2.06 2.06 2.06 2.02 1.99 1.93 1.87 1.81 1.69 1.58 1.52 1.51 1.47 1.42 1.40 1.37 1.35 1.35 1.37 1.39 1.41 1.41 1.40 1.40 1.38 1.33
1.56 1.56 1.54 1.53 1.54 1.57 1.61 1.65 1.71 1.78 1.78 1.79 1.76 1.73 1.77 1.76 1.76 1.77 1.73 1.71 1.70 1.72 1.74 1.72 1.67 1.62 1.60 1.59 1.57 1.54 1.53 1.53 1.53 1.52 1.53 1.56 1.57 1.57 1.57 1.59 1.64 1.66 1.60 1.57 1.62 1.68 1.78 1.82 1.87 1.90 1.91 1.93 1.95 2.00 2.04 2.06 2.07 2.08 2.09 2.06 2.02 1.96 1.87 1.78 1.70 1.61 1.55 1.50 1.41 1.29 1.23 1.18 1.12 1.09 1.10 1.10 1.15 1.23 1.28 1.32 1.35 1.37 1.39 1.41 1.43
1.52 1.52 1.49 1.47 1.48 1.51 1.56 1.60 1.67 1.74 1.76 1.77 1.77 1.74 1.75 1.75 1.75 1.73 1.72 1.68 1.64 1.63 1.67 1.70 1.66 1.60 1.55 1.54 1.57 1.57 1.58 1.58 1.60 1.61 1.62 1.63 1.63 1.63 1.64 1.66 1.71 1.71 1.73 1.71 1.75 1.79 1.81 1.84 1.88 1.90 1.95 2.01 2.06 2.07 2.06 2.04 2.01 1.98 1.94 1.87 1.80 1.72 1.61 1.49 1.39 1.30 1.20 1.10 1.02 0.98 0.98 1.02 1.04 1.03 1.03 1.06 1.08 1.12 1.16 1.19 1.22 1.27 1.29 1.31 1.33
1.38 1.37 1.39 1.42 1.44 1.48 1.53 1.56 1.60 1.66 1.74 1.76 1.72 1.73 1.73 1.75 1.69 1.71 1.69 1.65 1.62 1.58 1.61 1.67 1.63 1.59 1.58 1.53 1.54 1.58 1.61 1.61 1.62 1.66 1.68 1.68 1.68 1.68 1.69 1.71 1.73 1.75 1.75 1.79 1.83 1.84 1.86 1.89 1.93 1.98 2.03 2.06 2.05 2.00 1.95 1.91 1.87 1.81 1.72 1.62 1.51 1.38 1.25 1.13 1.01 0.95 0.92 0.93 0.96 0.99 1.02 1.05 1.08 1.10 1.13 1.13 1.15 1.17 1.15 1.12 1.15 1.18 1.24 1.28 1.28
1.24 1.23 1.26 1.30 1.35 1.41 1.42 1.46 1.53 1.58 1.63 1.69 1.71 1.72 1.70 1.69 1.65 1.66 1.65 1.62 1.60 1.58 1.59 1.63 1.63 1.62 1.58 1.57 1.57 1.59 1.61 1.62 1.63 1.67 1.70 1.71 1.72 1.73 1.75 1.77 1.78 1.80 1.82 1.83 1.86 1.87 1.88 1.91 1.97 2.00 2.00 1.96 1.86 1.78 1.74 1.70 1.64 1.55 1.45 1.35 1.22 1.08 0.99 0.95 0.94 0.92 0.89 0.91 0.93 0.93 0.96 1.01 1.03 1.06 1.08 1.09 1.07 1.04 1.06 1.03 1.05 1.06 1.13 1.16 1.17
1.13 1.16 1.19 1.22 1.26 1.29 1.30 1.32 1.38 1.46 1.50 1.54 1.59 1.65 1.70 1.68 1.66 1.64 1.63 1.61 1.60 1.59 1.60 1.61 1.61 1.61 1.57 1.59 1.60 1.59 1.59 1.62 1.64 1.67 1.72 1.73 1.74 1.77 1.78 1.79 1.82 1.84 1.84 1.85 1.87 1.89 1.91 1.95 1.95 1.91 1.79 1.72 1.70 1.71 1.66 1.57 1.44 1.32 1.17 1.05 1.00 0.98 0.98 0.96 0.94 0.90 0.89 0.90 0.92 0.94 0.97 1.00 1.05 1.04 1.01 1.02 1.01 1.02 1.07 1.06 1.04 1.02 1.06 1.11 1.11
1.00 1.02 1.07 1.16 1.21 1.23 1.22 1.26 1.30 1.33 1.40 1.44 1.44 1.49 1.57 1.65 1.65 1.61 1.60 1.62 1.60 1.59 1.61 1.62 1.62 1.62 1.61 1.62 1.59 1.57 1.57 1.60 1.64 1.67 1.71 1.74 1.77 1.81 1.84 1.86 1.87 1.88 1.87 1.90 1.92 1.92 1.89 1.84 1.77 1.71 1.70 1.69 1.65 1.54 1.40 1.27 1.15 1.03 0.97 0.97 0.97 0.99 0.98 0.98 0.97 0.95 0.95 0.96 0.95 0.97 0.98 1.00 0.97 0.97 0.99 0.98 0.97 0.99 1.04 1.04 1.01 0.99 1.04 1.10 1.05
1.03 1.01 1.05 1.08 1.11 1.19 1.21 1.24 1.27 1.28 1.29 1.35 1.40 1.43 1.46 1.48 1.55 1.67 1.79 1.82 1.80 1.72 1.68 1.69 1.73 1.77 1.75 1.67 1.60 1.55 1.56 1.57 1.66 1.78 1.81 1.84 1.84 1.82 1.81 1.82 1.84 1.85 1.86 1.84 1.82 1.77 1.71 1.67 1.66 1.64 1.57 1.45 1.33 1.21 1.11 1.00 0.95 0.96 0.96 0.96 0.95 0.95 0.94 0.91 0.87 0.88 0.91 0.91 0.89 0.91 0.93 0.95 0.95 0.97 0.97 0.95 0.94 0.97 1.02 1.02 1.02 1.02 1.02 1.06 1.03
1.00 0.99 1.05 1.07 1.10 1.15 1.20 1.24 1.24 1.23 1.24 1.25 1.28 1.34 1.43 1.48 1.54 1.57 1.64 1.79 1.88 1.91 1.90 1.83 1.88 1.93 1.86 1.82 1.79 1.67 1.63 1.72 1.78 1.77 1.79 1.80 1.79 1.78 1.77 1.76 1.75 1.74 1.74 1.74 1.71 1.64 1.60 1.58 1.54 1.44 1.34 1.24 1.10 0.96 0.90 0.90 0.90 0.90 0.91 0.93 0.92 0.91 0.89 0.89 0.89 0.90 0.92 0.91 0.93 0.92 0.93 0.94 0.94 0.95 0.96 0.94 0.94 0.97 1.00 1.02 0.98 1.03 1.01 1.01 1.03
1.04 1.01 1.05 1.10 1.14 1.17 1.20 1.20 1.21 1.21 1.23 1.24 1.26 1.26 1.30 1.41 1.49 1.57 1.62 1.71 1.80 1.90 1.98 1.99 2.00 2.00 1.95 1.86 1.86 1.85 1.80 1.78 1.76 1.74 1.72 1.70 1.70 1.70 1.71 1.71 1.71 1.69 1.69 1.66 1.63 1.60 1.53 1.43 1.35 1.30 1.19 1.02 0.89 0.88 0.91 0.92 0.92 0.90 0.88 0.89 0.89 0.88 0.88 0.88 0.91 0.93 0.93 0.93 0.94 0.96 0.97 0.96 0.95 0.97 0.95 0.95 0.94 0.93 0.95 1.00 1.04 1.05 1.05 1.06 1.07
1.07 1.07 1.10 1.16 1.23 1.25 1.25 1.23 1.22 1.20 1.21 1.24 1.25 1.26 1.27 1.28 1.37 1.52 1.60 1.68 1.75 1.83 1.92 2.00 2.02 2.00 1.98 1.92 1.83 1.79 1.78 1.74 1.73 1.71 1.71 1.71 1.72 1.74 1.74 1.72 1.69 1.69 1.68 1.65 1.53 1.46 1.39 1.29 1.18 1.04 0.94 0.88 0.90 0.94 0.95 0.95 0.94 0.91 0.89 0.85 0.85 0.88 0.90 0.90 0.95 0.96 0.94 0.94 0.95 0.98 0.97 0.96 0.97 0.97 0.97 0.95 0.94 0.92 0.93 0.94 0.98 1.01 1.04 1.08 1.11
1.15 1.14 1.17 1.21 1.24 1.25 1.25 1.24 1.23 1.22 1.20 1.20 1.22 1.26 1.27 1.28 1.28 1.34 1.51 1.65 1.73 1.77 1.81 1.87 1.91 1.92 1.88 1.85 1.88 1.88 1.83 1.79 1.76 1.76 1.74 1.75 1.77 1.74 1.69 1.65 1.64 1.65 1.63 1.52 1.39 1.31 1.22 1.09 0.96 0.93 0.93 0.91 0.94 0.96 0.97 0.96 0.93 0.92 0.91 0.89 0.88 0.91 0.96 0.99 1.01 0.98 0.96 0.98 1.01 1.01 1.01 0.99 0.98 0.97 0.96 0.95 0.93 0.90 0.93 0.93 0.97 1.01 1.04 1.06 1.10
1.23 1.24 1.24 1.25 1.25 1.26 1.27 1.28 1.28 1.29 1.31 1.31 1.31 1.30 1.32 1.34 1.36 1.39 1.41 1.48 1.60 1.69 1.73 1.74 1.78 1.85 1.89 1.92 1.92 1.92 1.91 1.92 1.90 1.85 1.81 1.73 1.65 1.63 1.66 1.69 1.71 1.66 1.51 1.34 1.24 1.11 1.02 0.95 0.95 0.95 0.96 0.98 0.98 0.99 0.97 0.94 0.94 0.93 0.94 0.95 0.96 0.99 1.01 1.04 1.00 0.97 0.98 1.01 1.04 1.03 1.02 1.00 0.98 0.94 0.92 0.93 0.95 0.96 0.94 0.95 0.97 0.97 0.99 1.04 1.09
1.29 1.31 1.34 1.34 1.32 1.31 1.33 1.33 1.34 1.35 1.37 1.37 1.37 1.36 1.38 1.42 1.44 1.42 1.41 1.39 1.39 1.43 1.48 1.57 1.78 1.87 1.82 1.80 1.84 1.85 1.85 1.86 1.84 1.77 1.71 1.66 1.66 1.70 1.70 1.64 1.53 1.43 1.33 1.23 1.09 1.00 0.96 0.96 0.96 0.98 0.99 0.99 1.00 0.99 0.95 0.94 0.94 0.95 0.95 0.98 0.99 1.02 1.03 0.99 0.98 0.99 0.99 1.04 1.04 1.01 1.01 1.00 0.99 0.98 0.96 0.94 0.93 0.92 0.92 0.93 0.93 0.94 0.95 1.00 1.07
1.35 1.36 1.38 1.41 1.41 1.41 1.40 1.41 1.42 1.42 1.42 1.43 1.45 1.46 1.46 1.44 1.40 1.39 1.41 1.43 1.44 1.42 1.45 1.58 1.68 1.70 1.70 1.70 1.68 1.67 1.66 1.66 1.66 1.64 1.64 1.71 1.76 1.70 1.53 1.40 1.28 1.18 1.08 1.07 1.02 1.00 1.01 1.00 1.01 1.01 1.03 1.02 1.02 0.99 0.97 0.96 0.98 0.99 1.02 1.02 1.02 1.03 1.01 0.98 0.98 0.98 1.00 1.04 1.02 1.01 0.99 0.98 0.99 0.99 0.99 0.98 0.96 0.95 0.95 0.93 0.93 0.93 0.97 1.01 1.08
1.41 1.42 1.43 1.44 1.46 1.47 1.48 1.49 1.49 1.50 1.49 1.49 1.49 1.48 1.46 1.44 1.44 1.42 1.43 1.46 1.46 1.48 1.49 1.50 1.54 1.56 1.59 1.60 1.59 1.58 1.61 1.62 1.67 1.73 1.76 1.74 1.72 1.66 1.51 1.29 1.10 1.06 1.01 0.99 0.99 0.99 1.00 1.03 1.05 1.04 1.04 1.02 1.00 1.00 1.00 1.00 1.03 1.05 1.06 1.07 1.07 1.05 1.02 1.01 1.01 1.01 1.00 1.00 0.99 0.98 0.96 0.95 0.97 0.99 1.00 0.97 0.96 0.97 0.97 0.97 0.96 0.94 0.95 1.00 1.05
1.46 1.48 1.49 1.50 1.52 1.53 1.53 1.55 1.57 1.59 1.58 1.56 1.53 1.51 1.46 1.45 1.48 1.54 1.55 1.52 1.51 1.47 1.45 1.48 1.48 1.46 1.42 1.48 1.59 1.63 1.64 1.66 1.70 1.74 1.74 1.68 1.58 1.43 1.28 1.16 1.09 1.01 0.98 1.00 1.02 1.02 1.02 1.04 1.06 1.05 1.04 1.03 1.01 1.02 1.03 1.05 1.07 1.08 1.08 1.08 1.07 1.07 1.05 1.04 1.03 1.03 1.02 0.99 0.98 0.97 0.96 0.96 0.98 0.99 1.01 1.00 0.99 0.99 1.00 1.00 0.99 0.97 0.98 1.01 1.03
1.46 1.52 1.55 1.55 1.54 1.54 1.55 1.55 1.54 1.52 1.52 1.51 1.51 1.51 1.51 1.52 1.54 1.57 1.58 1.60 1.56 1.56 1.59 1.58 1.52 1.51 1.56 1.68 1.73 1.75 1.68 1.58 1.49 1.43 1.44 1.46 1.38 1.25 1.16 1.08 1.04 1.02 1.03 1.04 1.06 1.06 1.06 1.06 1.08 1.07 1.06 1.05 1.05 1.07 1.08 1.08 1.09 1.09 1.09 1.07 1.05 1.05 1.03 1.02 1.01 1.02 1.02 0.99 0.97 0.97 0.95 0.94 0.97 1.00 1.00 1.00 1.00 1.03 1.03 1.04 1.05 1.04 1.01 1.01 1.04
1.42 1.49 1.54 1.57 1.59 1.61 1.61 1.58 1.59 1.60 1.58 1.56 1.52 1.56 1.60 1.61 1.61 1.58 1.57 1.59 1.64 1.64 1.64 1.60 1.57 1.56 1.61 1.62 1.63 1.64 1.60 1.53 1.44 1.30 1.24 1.20 1.14 1.13 1.11 1.06 1.04 1.05 1.06 1.09 1.10 1.11 1.10 1.08 1.07 1.05 1.06 1.07 1.09 1.09 1.10 1.10 1.09 1.08 1.07 1.05 1.02 1.01 1.02 1.03 1.05 1.05 1.02 1.00 0.97 0.96 0.94 0.92 0.94 0.97 0.99 0.99 1.00 1.04 1.04 1.04 1.06 1.08 1.08 1.07 1.09
1.40 1.44 1.47 1.51 1.57 1.62 1.62 1.61 1.62 1.66 1.65 1.62 1.62 1.65 1.68 1.61 1.58 1.58 1.58 1.56 1.54 1.52 1.52 1.56 1.58 1.61 1.63 1.58 1.51 1.47 1.40 1.30 1.23 1.19 1.14 1.11 1.11 1.10 1.09 1.09 1.11 1.12 1.14 1.13 1.12 1.11 1.09 1.08 1.07 1.08 1.09 1.10 1.11 1.12 1.11 1.11 1.09 1.07 1.05 1.04 1.04 1.04 1.05 1.07 1.09 1.09 1.07 1.02 0.99 0.97 0.96 0.94 0.92 0.92 0.91 0.97 1.02 1.01 1.02 1.04 1.04 1.05 1.05 1.06 1.07
1.37 1.41 1.45 1.48 1.47 1.52 1.57 1.58 1.60 1.64 1.66 1.63 1.59 1.56 1.52 1.50 1.51 1.53 1.52 1.49 1.47 1.49 1.52 1.55 1.58 1.61 1.59 1.49 1.37 1.34 1.29 1.23 1.19 1.14 1.12 1.12 1.11 1.11 1.14 1.16 1.19 1.17 1.15 1.14 1.15 1.13 1.11 1.10 1.10 1.11 1.10 1.11 1.12 1.13 1.13 1.11 1.10 1.09 1.07 1.06 1.05 1.06 1.08 1.10 1.11 1.11 1.09 1.06 1.02 0.99 0.98 0.96 0.94 0.93 0.93 0.95 0.95 0.97 0.97 0.96 0.96 0.96 0.97 1.00 1.02
1.29 1.36 1.43 1.50 1.51 1.46 1.42 1.51 1.57 1.55 1.56 1.55 1.52 1.50 1.48 1.47 1.48 1.49 1.49 1.49 1.50 1.50 1.48 1.47 1.47 1.45 1.37 1.28 1.24 1.23 1.19 1.16 1.14 1.12 1.11 1.11 1.12 1.13 1.15 1.16 1.18 1.19 1.19 1.18 1.17 1.15 1.13 1.11 1.11 1.12 1.12 1.12 1.14 1.14 1.12 1.10 1.10 1.08 1.08 1.06 1.06 1.07 1.10 1.13 1.13 1.13 1.12 1.10 1.06 1.02 1.01 1.00 0.98 0.96 0.95 0.94 0.94 0.94 0.95 0.96 0.97 0.98 0.97 0.96 0.95
1.26 1.27 1.36 1.43 1.53 1.56 1.52 1.46 1.44 1.43 1.44 1.49 1.48 1.44 1.42 1.43 1.46 1.47 1.46 1.44 1.44 1.42 1.40 1.38 1.35 1.26 1.16 1.15 1.15 1.12 1.10 1.09 1.09 1.10 1.11 1.13 1.14 1.16 1.17 1.18 1.18 1.17 1.16 1.15 1.15 1.15 1.15 1.14 1.13 1.12 1.13 1.13 1.13 1.13 1.12 1.11 1.10 1.07 1.05 1.04 1.03 1.05 1.09 1.13 1.14 1.14 1.14 1.11 1.09 1.06 1.05 1.05 1.04 1.02 0.99 0.98 0.95 0.93 0.92 0.93 0.93 0.93 0.93 0.92 0.93
1.24 1.25 1.28 1.33 1.37 1.46 1.56 1.57 1.50 1.42 1.37 1.34 1.37 1.39 1.39 1.41 1.44 1.45 1.43 1.41 1.40 1.38 1.34 1.29 1.21 1.13 1.10 1.10 1.10 1.08 1.09 1.10 1.12 1.13 1.15 1.16 1.16 1.17 1.18 1.18 1.17 1.15 1.14 1.13 1.14 1.14 1.13 1.12 1.11 1.10 1.10 1.10 1.10 1.09 1.09 1.08 1.07 1.05 1.04 1.02 1.00 1.01 1.07 1.12 1.15 1.16 1.17 1.14 1.11 1.09 1.08 1.06 1.05 1.04 1.03 1.02 1.01 0.97 0.93 0.92 0.91 0.89 0.87 0.86 0.85
1.23 1.27 1.28 1.29 1.35 1.43 1.44 1.48 1.53 1.53 1.46 1.35 1.32 1.37 1.37 1.35 1.36 1.40 1.40 1.37 1.33 1.28 1.24 1.19 1.15 1.13 1.11 1.11 1.11 1.12 1.13 1.15 1.16 1.18 1.19 1.19 1.19 1.19 1.19 1.18 1.17 1.16 1.15 1.14 1.13 1.13 1.12 1.10 1.09 1.08 1.08 1.07 1.07 1.07 1.07 1.06 1.05 1.04 1.04 1.03 1.02 1.02 1.05 1.09 1.12 1.11 1.12 1.14 1.15 1.13 1.10 1.08 1.07 1.06 1.05 1.03 1.03 1.02 0.98 0.96 0.95 0.92 0.89 0.88 0.89
1.22 1.25 1.28 1.30 1.33 1.34 1.37 1.44 1.47 1.49 1.52 1.54 1.53 1.52 1.49 1.48 1.47 1.44 1.40 1.33 1.26 1.23 1.19 1.15 1.13 1.11 1.11 1.12 1.13 1.14 1.16 1.17 1.17 1.17 1.17 1.17 1.18 1.19 1.18 1.18 1.17 1.16 1.16 1.15 1.14 1.13 1.11 1.10 1.09 1.08 1.07 1.07 1.07 1.07 1.07 1.07 1.07 1.07 1.07 1.07 1.07 1.06 1.07 1.07 1.08 1.10 1.11 1.13 1.15 1.15 1.13 1.09 1.06 1.06 1.04 1.03 1.02 1.02 1.01 0.99 0.98 0.97 0.96 0.96 0.93
1.19 1.19 1.22 1.27 1.33 1.34 1.34 1.34 1.33 1.36 1.39 1.41 1.41 1.40 1.39 1.37 1.35 1.35 1.33 1.29 1.21 1.17 1.14 1.14 1.13 1.13 1.13 1.14 1.16 1.16 1.17 1.17 1.17 1.15 1.15 1.16 1.16 1.17 1.17 1.16 1.15 1.15 1.14 1.13 1.13 1.12 1.11 1.10 1.09 1.09 1.08 1.08 1.08 1.07 1.07 1.08 1.09 1.10 1.11 1.11 1.11 1.11 1.10 1.09 1.08 1.08 1.07 1.08 1.08 1.08 1.07 1.07 1.07 1.07 1.06 1.04 1.01 1.01 0.99 0.99 0.98 0.96 0.96 0.94 0.93
1.20 1.18 1.19 1.20 1.20 1.25 1.31 1.33 1.32 1.29 1.26 1.27 1.27 1.26 1.24 1.23 1.23 1.23 1.21 1.17 1.14 1.13 1.13 1.12 1.13 1.15 1.15 1.16 1.16 1.16 1.16 1.17 1.16 1.15 1.14 1.13 1.12 1.13 1.14 1.15 1.14 1.13 1.12 1.11 1.11 1.11 1.11 1.11 1.11 1.10 1.09 1.09 1.09 1.08 1.08 1.08 1.09 1.11 1.12 1.12 1.11 1.10 1.08 1.07 1.06 1.06 1.06 1.05 1.04 1.03 1.03 1.04 1.03 1.04 1.05 1.05 1.04 1.03 1.02 1.01 0.99 0.97 0.96 0.95 0.94
1.18 1.17 1.16 1.16 1.16 1.19 1.23 1.24 1.23 1.23 1.22 1.20 1.18 1.18 1.19 1.19 1.18 1.16 1.14 1.13 1.13 1.13 1.13 1.14 1.15 1.15 1.16 1.16 1.15 1.15 1.16 1.16 1.16 1.15 1.13 1.12 1.12 1.12 1.11 1.11 1.11 1.11 1.10 1.10 1.10 1.11 1.11 1.11 1.10 1.10 1.10 1.09 1.09 1.09 1.09 1.09 1.10 1.09 1.09 1.08 1.06 1.04 1.03 1.02 1.02 1.02 1.02 1.02 1.02 1.02 1.02 1.01 1.01 1.01 1.01 1.01 1.00 0.98 0.96 0.96 0.96 0.96 0.94 0.93 0.93
1.15 1.08 1.08 1.14 1.17 1.19 1.20 1.20 1.20 1.20 1.19 1.17 1.15 1.13 1.12 1.12 1.12 1.12 1.13 1.13 1.13 1.13 1.14 1.14 1.14 1.14 1.14 1.14 1.15 1.14 1.14 1.14 1.14 1.14 1.13 1.12 1.11 1.10 1.09 1.08 1.07 1.07 1.08 1.08 1.08 1.08 1.08 1.08 1.07 1.07 1.07 1.07 1.07 1.08 1.09 1.10 1.08 1.06 1.04 1.02 1.00 0.98 0.97 0.96 0.95 0.95 0.96 0.96 0.95 0.94 0.94 0.94 0.94 0.95 0.95 0.96 0.96 0.95 0.94 0.94 0.94 0.93 0.91 0.90 0.90
Wind_Speed
31 31 30 30 29 29 29 28 27 27 26 26 25 25 24 24 23 22 22 21 20 20 19 18 17 17 16 16 16 15 15 14 14 14 14 14 14 14 14 14 14 13 13 12 11 10 11 11 10 10 10 10 10 9 9 9 9 9 9 8 8 8 8 8 8 9 10 9 9 9 9 9 10 10 11 12 12 12 13 14 15 15 16 16 16
31 31 30 30 30 29 29 28 27 27 27 26 26 25 25 24 23 23 22 22 21 21 20 19 18 18 17 17 17 16 16 15 15 15 15 14 14 14 14 15 15 15 14 14 13 12 12 12 12 12 12 12 11 11 11 10 10 10 10 10 10 10 10 10 10 11 11 12 11 11 11 11 12 12 13 13 14 14 15 16 16 17 18 18 18
31 31 30 30 30 29 29 28 28 28 27 27 26 26 25 24 24 23 23 22 22 21 21 20 20 19 19 18 17 17 17 16 16 15 15 15 15 15 15 15 15 15 15 15 15 15 14 14 14 14 13 13 13 12 12 12 12 12 12 12 12 12 12 12 13 13 14 14 14 13 13 13 14 14 15 16 16 17 17 18 18 19 20 20 20
31 31 31 30 30 30 29 29 28 28 27 27 26 26 25 25 24 24 23 23 22 22 21 21 21 20 20 19 19 18 18 17 16 16 16 16 16 16 16 16 16 16 16 16 16 16 16 16 16 16 15 15 15 14 14 13 13 14 14 14 14 15 15 15 15 15 16 16 16 16 16 16 17 17 17 18 18 19 20 20 20 21 22 22 22
31 31 31 30 30 30 29 29 29 28 28 27 27 26 25 25 24 24 24 23 23 22 22 22 21 21 21 20 19 19 18 18 17 17 17 17 17 17 16 17 17 17 17 17 17 17 17 17 17 17 17 17 16 16 15 15 15 15 16 16 16 16 16 17 17 17 18 18 19 18 19 19 20 20 20 20 21 21 22 22 23 23 24 24 24
31 31 31 30 30 30 29 29 29 28 28 27 27 26 26 25 25 24 24 24 23 23 22 22 21 21 21 21 20 19 19 18 18 18 18 17 17 17 17 17 17 17 17 18 18 18 18 18 18 18 18 18 18 17 17 17 17 17 17 18 18 18 18 18 19 19 20 21 21 21 21 22 22 23 23 23 23 24 24 24 25 25 25 26 26
31 31 31 30 30 29 29 29 28 28 27 27 27 26 26 26 25 25 24 24 23 23 23 22 22 22 21 21 21 20 20 19 19 19 18 18 18 18 18 18 18 18 18 18 18 18 18 18 18 18 18 18 18 18 18 18 18 18 18 19 19 19 19 20 20 21 21 22 23 23 23 24 24 24 25 25 25 25 26 26 26 27 27 27 28
30 30 30 30 30 29 29 28 28 28 27 27 27 26 26 26 25 25 24 24 24 23 23 22 22 22 22 21 21 21 20 20 20 19 19 19 19 19 18 18 18 18 18 18 18 18 18 18 18 18 18 18 19 19 18 18 18 18 19 19 19 20 20 21 21 22 22 23 24 24 25 25 25 26 26 26 26 27 27 28 28 29 29 29 30
29 29 29 29 29 29 29 28 28 28 27 27 26 26 26 26 26 25 24 24 24 23 23 23 22 22 22 22 21 21 21 20 20 20 20 19 19 19 19 18 18 18 18 18 18 18 18 18 18 18 18 19 19 19 19 19 19 19 19 20 20 21 21 22 22 23 23 24 25 25 26 26 27 27 27 28 28 29 29 29 30 31 31 31 31
28 28 28 29 28 28 28 28 28 27 27 27 26 26 26 26 26 25 25 24 24 23 23 23 23 23 22 22 22 21 21 21 21 21 20 20 19 19 19 19 18 18 18 18 18 18 17 17 17 18 18 18 19 19 19 20 20 20 20 21 21 22 22 23 23 24 25 26 26 27 27 28 28 29 29 30 30 31 31 31 32 32 32 32 33
27 27 27 27 28 28 28 28 28 27 27 27 26 26 26 26 26 25 25 25 24 23 23 23 23 23 22 22 22 22 21 21 21 21 21 21 20 19 19 19 18 18 18 18 18 17 17 17 17 17 18 18 18 19 20 20 21 21 22 22 23 23 23 24 25 25 26 27 28 28 29 30 30 30 31 31 32 32 33 33 33 34 34 34 34
28 28 27 27 27 27 27 27 27 27 27 27 26 26 26 26 26 25 25 25 24 24 23 23 23 23 23 22 22 22 21 21 22 21 21 21 21 20 19 19 18 18 18 18 18 17 17 17 17 17 17 18 19 19 20 21 21 22 23 24 24 25 25 26 26 27 27 28 29 30 31 32 32 32 32 33 34 34 35 35 35 36 36 36 36
28 28 28 27 27 27 27 27 27 27 27 27 26 26 26 26 26 26 25 25 24 24 24 24 23 23 23 23 23 22 22 22 22 22 21 21 21 20 19 19 19 19 18 18 18 18 18 17 17 17 18 18 19 19 20 20 21 22 23 24 25 26 27 28 29 29 30 30 31 32 32 33 34 34 35 35 36 37 37 38 38 39 39 39 39
28 28 28 28 27 27 27 27 27 27 27 27 27 26 26 26 26 26 26 25 25 25 25 24 24 24 24 23 23 23 22 22 22 22 22 21 21 20 20 20 20 19 19 18 18 18 17 17 17 17 17 18 18 19 20 21 22 23 24 25 26 27 29 30 31 32 32 33 34 35 35 35 36 37 37 38 39 39 40 41 41 42 43 43 43
27 27 27 27 27 27 27 27 27 27 27 27 27 27 27 27 27 26 26 26 26 25 25 25 25 24 24 24 23 23 23 23 23 22 22 21 21 20 20 20 20 20 19 18 18 18 17 17 17 18 18 19 20 20 21 22 23 24 25 26 27 28 29 30 31 33 34 34 36 37 37 37 39 39 39 40 41 42 43 44 44 45 45 45 45
27 27 27 27 27 27 27 27 27 27 27 27 26 27 27 27 27 26 26 26 26 26 25 25 25 25 24 24 24 24 23 23 23 23 22 22 21 20 20 21 20 19 19 18 18 18 18 18 19 20 20 21 22 22 23 24 25 26 27 28 28 29 30 31 33 34 35 36 37 38 39 39 40 41 42 42 43 44 44 45 46 46 46 46 46
27 27 26 26 27 27 28 28 28 27 27 27 26 26 26 26 26 26 26 26 26 26 25 25 25 25 25 24 24 24 24 23 23 22 22 21 21 20 20 20 20 20 19 19 19 19 19 20 21 21 22 23 24 24 25 26 27 28 28 29 30 31 31 33 34 35 36 38 39 39 40 41 43 44 44 45 46 46 46 47 47 47 47 47 48
27 27 26 26 26 27 27 28 28 28 28 27 27 26 26 26 25 25 25 26 26 25 25 25 25 25 25 25 24 24 23 23 23 22 22 22 21 21 21 21 21 20 20 20 20 21 21 22 23 23 24 24 25 26 27 27 28 29 30 31 31 32 33 34 35 36 37 38 39 40 42 43 44 45 46 47 48 47 47 48 49 49 49 49 50
28 27 26 26 26 26 27 27 28 28 28 28 28 27 26 26 25 25 25 25 25 25 25 25 25 25 25 25 25 24 24 23 23 23 22 22 22 21 21 21 21 21 21 21 22 22 22 23 24 25 25 26 27 27 28 28 29 30 31 32 33 33 34 35 37 37 37 37 38 39 41 42 44 45 46 46 47 47 48 49 50 50 51 52 52
28 28 27 26 26 26 27 27 28 28 28 28 28 28 27 26 26 25 25 25 25 25 25 25 25 25 25 25 25 25 24 24 23 23 23 23 23 22 21 22 22 22 22 22 22 23 23 24 25 26 26 27 28 28 29 29 30 31 32 33 34 35 35 36 38 39 38 37 38 40 41 42 43 44 45 45 46 47 48 49 50 51 52 53 53
29 29 28 27 27 27 27 27 27 28 28 28 27 27 27 27 26 26 26 25 25 25 25 25 26 25 25 25 25 25 25 24 24 24 24 23 23 22 22 22 23 23 23 23 24 24 24 25 25 26 26 26 27 28 29 29 30 31 32 34 35 36 37 37 39 40 40 39 40 42 43 43 44 44 45 46 46 47 48 49 50 51 52 53 53
29 29 29 28 28 27 27 27 27 27 28 27 27 27 27 27 27 26 26 26 26 26 26 26 26 26 26 26 25 25 25 25 25 25 25 24 24 24 23 23 24 24 24 24 25 25 25 25 25 25 25 26 26 27 28 29 30 31 33 34 36 37 38 38 40 41 41 42 43 43 44 44 45 46 47 47 48 49 49 50 50 51 52 53 53
27 28 28 28 27 27 26 26 27 27 28 28 27 27 27 27 27 27 27 27 27 27 27 27 27 27 26 26 26 26 26 26 26 26 25 25 25 25 25 25 25 25 25 25 25 25 24 24 24 25 25 26 26 27 29 30 31 32 34 35 36 37 38 39 40 41 42 43 45 45 45 46 47 48 48 48 49 49 50 50 51 51 52 53 53
25 26 27 27 27 26 26 25 26 27 28 28 28 27 27 27 26 26 27 27 27 28 28 28 28 28 27 27 26 26 26 26 26 26 26 26 26 26 26 26 25 25 25 25 25 24 24 24 24 25 26 26 27 29 30 31 32 33 34 35 35 36 37 39 40 41 42 44 45 46 46 47 48 48 48 48 48 48 48 49 49 50 51 52 53
25 25 26 26 26 26 25 25 25 25 27 28 28 28 27 27 26 26 26 26 27 27 28 28 28 28 28 27 27 26 25 25 25 25 25 26 26 26 26 26 25 25 25 25 24 24 24 25 25 26 27 27 28 29 30 31 31 32 33 34 35 36 37 38 39 41 42 44 45 45 46 46 46 47 47 47 47 47 47 47 48 49 50 51 52
24 25 25 26 25 25 25 25 25 25 25 26 27 28 28 28 27 27 26 26 26 27 27 28 28 28 28 27 26 25 25 25 25 25 25 25 25 26 26 26 26 26 25 25 24 24 25 25 26 26 27 27 28 28 29 30 31 32 33 34 34 35 36 38 39 40 42 43 44 44 45 46 46 46 47 46 46 45 46 47 48 48 49 50 51
25 25 25 26 26 26 25 25 24 24 25 25 25 27 28 29 28 28 27 26 26 26 26 27 27 27 27 27 26 25 25 25 25 25 25 25 25 25 25 25 25 25 25 25 25 25 25 25 25 26 26 26 27 28 29 29 30 31 32 33 34 35 36 37 39 40 42 43 44 45 46 46 46 46 46 46 45 45 46 47 48 49 49 49 51
26 26 26 27 27 27 27 26 25 25 24 24 24 24 25 27 28 28 28 27 26 25 25 25 26 26 27 26 25 25 24 25 25 25 25 25 25 25 25 24 24 24 24 24 24 24 24 25 25 25 26 26 27 27 28 29 29 30 31 32 33 35 36 38 39 41 42 44 45 46 46 46 45 46 46 45 45 45 46 46 47 48 49 49 51
25 26 27 27 27 28 27 27 26 25 24 23 23 23 23 24 25 26 27 27 27 26 26 25 26 26 26 26 25 25 25 25 25 25 24 24 24 24 24 24 23 23 23 23 23 24 24 25 25 25 26 26 26 27 28 28 29 30 31 32 34 35 37 39 40 42 43 44 45 45 45 44 44 45 45 45 44 44 45 46 47 48 48 49 50
22 24 26 27 27 27 27 27 26 25 24 24 23 23 23 23 23 24 25 26 27 27 27 26 26 26 26 26 26 26 25 25 25 24 24 24 23 23 23 23 23 23 23 23 24 24 25 25 25 25 25 26 26 27 28 29 30 31 32 33 35 36 38 39 41 42 43 44 44 44 44 43 44 44 44 44 44 44 45 45 46 46 46 47 48
20 22 24 26 27 27 27 26 26 25 25 25 24 24 24 23 23 24 24 25 25 26 27 27 27 26 26 26 26 25 25 25 25 24 24 24 23 23 23 23 23 23 24 24 24 24 24 24 24 25 25 26 26 27 28 29 30 31 32 34 35 37 38 39 40 42 42 43 43 43 42 42 43 43 43 44 44 44 44 44 44 44 44 44 45
20 21 22 24 25 26 26 26 26 25 25 25 25 25 25 24 24 24 24 24 24 24 25 26 26 26 26 26 26 25 25 25 25 24 24 24 23 23 23 23 23 23 24 24 23 23 24 24 24 25 25 26 27 28 29 30 31 32 33 35 36 37 38 39 40 41 42 43 42 41 41 41 41 42 42 43 44 44 44 43 43 42 42 42 42
20 20 21 22 24 25 26 26 26 26 25 25 25 25 26 25 25 24 24 24 24 24 24 25 26 26 26 26 26 26 26 26 25 24 24 24 23 23 23 23 23 23 23 23 23 23 24 24 24 25 26 26 27 28 29 30 31 32 34 35 36 37 38 39 40 40 41 41 41 40 40 40 40 41 42 42 43 43 43 42 42 41 40 40 40
20 21 21 22 23 24 25 25 25 25 25 25 26 25 25 25 25 25 24 24 24 24 24 24 25 25 25 25 25 25 25 25 24 24 24 23 23 23 23 23 23 23 23 23 23 23 24 24 25 25 26 27 27 28 29 30 32 33 34 35 36 37 38 39 39 39 40 40 39 38 39 39 39 40 41 41 41 41 41 41 41 41 39 39 39
21 21 21 22 23 24 24 25 25 25 25 25 25 25 25 25 25 25 25 24 24 24 24 23 23 23 24 24 24 24 24 24 24 24 24 23 23 23 23 23 22 23 23 23 23 24 24 25 25 26 26 27 28 29 30 31 32 33 34 35 36 37 38 39 38 38 39 38 38 37 37 38 38 39 39 39 39 39 38 39 40 40 39 38 37
21 22 22 23 23 24 24 25 25 25 25 25 25 25 25 25 24 24 24 23 23 23 24 23 23 23 22 23 23 23 23 23 24 24 24 24 24 24 23 23 23 23 23 24 24 24 25 25 25 26 26 27 28 29 30 31 32 33 34 35 36 37 38 38 38 38 38 37 37 36 36 36 37 37 37 37 37 36 36 36 37 37 36 35 32
22 22 22 23 24 24 24 24 24 24 24 24 24 24 24 24 24 23 22 22 22 23 23 23 24 23 23 23 23 23 23 23 23 24 24 24 25 25 25 24 24 24 24 24 25 25 25 25 26 26 27 28 29 30 30 31 32 33 34 35 35 36 37 37 37 37 36 36 35 35 35 35 35 35 35 35 35 34 34 33 33 33 32 30 28
22 23 23 23 24 24 24 23 23 23 23 23 24 24 24 23 23 22 22 21 22 22 22 22 22 23 23 23 23 24 24 23 23 24 24 25 25 25 24 24 24 24 24 25 25 25 25 25 26 27 27 28 29 30 31 31 32 33 34 34 35 36 36 37 37 36 35 35 34 34 33 33 33 33 33 33 33 33 32 31 31 30 29 28 27
22 23 23 23 23 24 23 23 23 23 23 23 23 23 23 23 22 22 22 22 21 21 21 21 21 21 22 23 24 24 24 23 23 24 25 24 24 24 23 24 24 24 24 25 25 25 25 26 27 27 28 29 29 30 31 31 32 32 33 34 34 35 36 36 36 35 34 34 33 32 32 32 32 31 31 31 31 30 30 29 29 28 28 27 26
22 23 23 23 23 23 23 23 23 23 23 23 23 22 22 22 22 22 22 22 21 20 20 20 20 20 21 23 24 24 24 24 23 24 24 23 23 23 24 24 24 25 25 25 25 26 26 27 27 28 29 29 30 30 31 31 31 32 32 33 34 35 35 35 34 33 33 32 32 31 31 31 30 30 29 29 29 29 28 28 27 27 26 25 25
21 22 22 23 23 24 23 23 23 23 22 22 22 22 22 23 23 23 23 22 22 21 21 20 21 21 22 22 23 24 24 24 23 23 23 23 23 24 24 24 25 25 25 26 26 26 27 28 28 29 29 30 30 30 31 31 31 32 33 33 34 34 35 34 33 32 31 31 30 30 30 29 29 28 28 28 27 27 27 26 26 25 24 23 22
19 21 22 22 22 23 24 24 23 23 23 23 23 22 23 23 23 23 23 22 22 22 22 22 22 22 22 22 22 22 23 23 23 23 23 23 24 24 25 25 25 26 26 26 27 27 28 28 29 29 30 30 30 31 31 31 32 32 33 34 34 34 34 33 31 31 30 30 29 29 28 28 27 27 26 26 26 26 26 26 25 23 22 21 20
19 20 21 21 21 22 23 23 24 24 24 23 23 23 22 22 22 22 22 22 22 22 22 22 22 22 21 21 21 21 22 23 23 23 24 24 24 25 25 26 26 26 27 27 28 28 29 29 29 30 30 31 31 31 31 32 32 33 33 34 34 33 32 31 30 30 29 29 28 28 27 27 27 26 26 26 26 26 26 25 24 23 22 21 19
20 20 21 21 22 22 22 22 23 23 23 23 23 23 22 22 22 22 22 22 22 22 22 21 21 21 21 21 21 21 22 22 23 23 24 24 25 25 26 26 27 27 27 28 28 29 29 30 30 30 31 31 31 32 32 32 33 33 33 33 33 32 31 30 30 29 29 28 28 27 26 26 26 26 26 26 26 26 25 24 23 22 21 20 19
21 21 20 21 22 22 22 22 22 23 23 23 23 23 23 23 23 23 23 23 23 22 22 22 22 22 22 22 22 22 22 23 23 24 24 25 25 26 26 27 27 28 28 28 29 29 30 30 31 31 31 31 32 32 32 32 33 33 33 33 32 31 30 30 30 29 29 28 28 27 26 26 26 26 26 26 26 25 25 24 23 22 21 19 18
22 21 21 21 21 22 22 22 22 22 22 22 23 23 23 23 24 24 24 24 24 23 23 23 23 23 23 23 23 23 23 24 24 24 25 25 26 26 27 27 28 28 29 29 30 30 30 31 31 32 32 32 32 32 32 33 33 33 32 32 32 31 30 30 30 30 29 29 28 27 27 27 27 27 27 26 26 25 24 24 23 22 21 20 19
23 23 22 22 22 22 23 23 23 23 23 23 23 23 23 23 23 23 23 23 24 24 24 24 24 24 24 24 24 24 24 25 25 25 26 27 27 28 28 28 29 29 30 30 30 31 31 32 32 32 32 32 33 33 33 33 33 33 32 32 32 31 31 30 30 30 30 29 28 27 27 27 27 27 27 27 26 26 25 24 23 23 22 22 21
24 24 24 23 23 23 23 23 24 24 24 24 24 24 24 24 23 23 23 24 24 24 25 25 25 25 25 25 25 25 26 26 26 27 27 27 28 29 29 30 30 30 31 31 31 31 32 32 32 33 33 33 33 33 33 33 33 33 32 32 32 32 32 31 31 31 30 30 29 28 27 27 27 27 27 27 27 26 26 25 25 24 24 23 22
25 25 25 25 25 25 25 25 25 26 26 27 26 26 25 25 25 25 25 25 25 25 25 25 26 26 26 26 26 27 27 27 27 27 28 28 29 30 30 30 30 31 31 31 32 32 32 32 33 33 34 34 34 33 33 33 33 33 32 32 33 33 33 32 32 31 31 30 29 28 28 28 27 27 27 27 27 27 26 26 26 26 25 24 24
25 25 25 25 26 26 26 26 26 26 26 26 26 26 26 26 26 26 26 26 26 26 26 26 26 27 27 27 27 27 28 28 28 28 29 29 29 29 30 30 30 31 31 32 32 32 33 33 33 34 34 34 34 34 33 33 33 33 33 33 33 33 32 32 32 32 31 31 30 30 29 29 28 28 28 28 28 27 27 27 26 26 26 25 25
25 25 25 25 25 26 26 26 26 26 25 26 26 26 27 27 27 27 26 26 26 27 27 27 27 27 27 28 28 28 28 29 29 29 29 29 29 29 30 30 31 31 31 32 32 33 33 34 34 34 34 34 34 34 33 33 33 33 33 33 32 32 32 32 32 32 32 31 31 30 30 30 29 29 29 29 29 28 28 27 27 27 26 26 25
Wind_Direction
208 209 210 211 212 212 213 213 214 215 215 214 214 214 214 214 215 216 216 217 217 219 221 224 225 226 226 227 228 228 229 230 232 233 234 236 238 239 241 242 243 245 247 248 249 250 250 250 251 253 254 255 256 257 260 263 267 270 274 278 281 284 285 282 285 294 300 302 302 302 302 301 298 295 296 297 296 293 292 291 291 292 292 293 294
208 209 210 211 212 212 213 214 215 215 215 215 215 215 215 215 216 216 217 219 220 221 223 225 227 228 229 229 229 230 231 232 233 234 235 237 238 240 241 242 244 245 247 249 250 252 254 253 254 255 256 258 259 260 261 263 266 269 272 275 279 282 283 284 285 290 295 298 299 299 298 296 294 294 294 294 295 295 295 293 292 291 291 291 292
208 209 210 211 212 213 214 214 215 215 215 216 216 216 216 217 217 218 219 220 222 224 225 227 228 229 230 231 230 231 232 233 234 235 236 238 239 240 241 242 244 245 247 249 251 254 256 256 257 257 257 258 260 262 264 265 266 269 271 274 277 280 281 282 284 286 290 294 295 296 296 294 293 293 293 293 294 294 295 294 292 291 290 290 290
208 209 210 211 212 213 213 214 214 215 215 216 217 217 218 218 219 220 221 222 223 225 227 228 229 229 230 231 231 231 232 234 235 236 237 239 240 241 242 242 244 245 247 250 252 255 257 257 258 259 259 259 261 263 264 266 267 269 272 274 275 278 280 280 281 283 286 289 291 293 294 294 293 294 294 293 293 292 292 292 291 290 289 288 288
207 208 209 211 212 212 213 213 214 215 215 216 217 218 218 219 220 221 222 223 225 226 227 228 229 229 230 231 232 232 233 235 237 238 239 240 241 242 243 244 245 246 248 251 253 255 257 258 258 258 259 260 261 264 265 267 268 270 272 274 276 277 279 279 280 281 282 285 287 290 291 292 292 292 292 291 291 290 290 290 290 290 289 288 288
207 208 209 210 211 212 212 213 214 215 216 217 217 218 219 220 221 222 223 224 225 227 228 229 229 229 230 232 233 234 235 236 237 239 240 242 243 243 244 245 246 248 249 251 253 255 257 258 258 257 258 259 261 264 266 267 269 271 272 274 276 277 278 278 279 280 281 283 285 287 288 289 290 290 290 290 289 289 288 288 289 288 288 288 287
207 208 209 210 210 211 212 213 214 215 216 217 218 219 219 221 222 223 224 225 226 227 228 229 230 231 231 233 234 235 236 236 238 239 241 242 243 244 245 246 247 249 250 252 253 254 256 258 258 257 257 259 261 263 265 267 269 271 272 274 276 277 278 279 279 280 281 282 284 286 287 288 289 289 290 290 290 289 288 287 287 287 286 286 286
207 208 208 209 210 211 212 213 214 215 217 218 219 220 221 222 223 224 226 227 228 228 229 230 231 232 233 234 234 235 236 237 238 239 240 242 243 244 245 247 249 250 251 252 252 254 256 256 256 256 257 259 261 263 265 267 269 271 272 274 276 277 278 280 281 281 282 283 285 286 287 288 289 289 290 290 289 288 287 286 286 286 286 286 286
206 207 208 209 211 212 213 214 215 216 217 218 220 221 222 223 224 225 226 228 229 230 230 231 231 232 233 234 234 235 236 238 239 239 240 241 243 245 246 247 249 251 252 252 253 254 255 255 255 256 257 259 261 263 265 267 269 271 273 274 276 277 279 281 282 284 285 286 286 287 289 289 289 290 290 289 288 289 289 288 287 287 287 286 286
204 206 207 210 211 212 213 214 215 216 217 219 220 221 222 223 224 225 226 227 229 230 230 231 231 232 233 233 234 235 237 238 239 239 240 241 243 245 246 248 249 251 252 252 253 253 254 255 256 257 258 260 262 263 265 267 269 271 273 275 277 278 280 282 283 284 285 287 287 289 290 290 290 290 290 290 290 290 290 289 288 288 288 287 287
204 206 208 210 211 212 214 215 216 217 218 219 220 221 222 223 224 225 226 227 228 229 230 231 232 233 233 234 234 236 237 238 238 239 240 241 242 244 246 248 250 251 252 253 253 254 255 257 259 260 261 263 264 266 268 269 271 273 274 276 278 279 281 282 284 285 286 287 288 289 290 290 290 290 291 291 291 291 290 289 289 289 288 287 287
205 207 209 210 212 213 214 215 216 217 218 219 220 221 221 222 223 224 226 227 228 229 230 232 233 233 234 235 236 237 238 239 239 239 240 241 242 243 246 248 250 251 251 252 254 255 257 259 261 262 264 265 268 270 272 273 274 276 278 279 279 280 281 282 284 285 286 287 288 288 289 290 291 291 291 291 291 290 290 289 288 287 286 285 285
207 209 210 211 213 214 214 215 216 217 218 219 220 221 222 223 224 225 227 228 229 231 232 233 234 234 235 236 237 238 239 239 239 240 240 241 241 243 246 248 250 251 251 252 254 255 257 259 261 263 265 268 270 273 276 278 279 280 281 282 283 283 283 283 284 285 286 287 287 288 289 290 291 291 291 291 291 290 289 288 287 286 285 284 284
208 210 212 213 214 215 215 216 217 218 219 220 221 222 223 224 226 227 228 229 231 232 233 234 235 235 236 236 237 239 240 240 239 240 240 241 242 244 247 249 250 250 251 251 252 253 255 258 261 264 267 270 273 276 278 281 282 284 285 286 286 286 286 286 285 285 286 286 287 289 290 289 290 291 291 290 289 289 289 288 287 286 285 285 285
210 211 213 213 215 216 216 217 218 219 220 221 221 222 224 226 227 228 229 231 232 233 234 235 236 236 236 236 237 239 240 240 239 239 240 241 243 245 247 248 249 249 249 249 251 252 255 258 262 266 270 273 275 278 280 282 284 285 285 286 287 288 288 288 287 286 287 287 287 289 291 291 290 291 291 290 289 289 288 288 288 287 286 285 284
210 212 213 214 215 216 217 218 220 221 221 222 222 223 225 227 228 229 230 232 233 234 235 236 236 236 236 237 238 239 240 239 239 239 239 240 242 244 246 246 246 246 247 248 250 254 257 261 265 269 272 275 277 278 280 282 283 284 285 287 288 289 289 288 287 286 287 288 288 289 291 291 291 291 291 290 290 290 290 289 289 288 286 285 284
210 212 213 215 216 217 218 219 220 221 222 222 223 224 226 227 229 230 231 232 234 234 235 236 236 236 236 236 238 239 238 237 237 238 238 238 240 242 244 244 244 246 247 250 253 257 261 264 267 271 274 276 278 279 280 281 283 284 286 288 289 290 290 290 288 287 287 287 288 290 290 291 291 291 291 291 291 291 290 289 289 288 286 285 284
213 213 214 216 217 218 219 220 221 222 222 223 224 225 226 228 229 230 231 232 234 234 235 236 236 236 236 236 236 237 237 237 237 238 238 237 239 242 243 243 244 246 249 252 256 259 263 265 268 271 274 276 278 279 280 282 284 285 287 289 290 291 292 292 292 291 290 289 290 291 291 292 292 292 292 291 291 290 289 288 289 288 286 286 286
215 216 217 218 219 220 221 222 223 223 224 224 225 226 227 228 229 230 231 232 233 234 234 235 235 235 235 235 235 236 238 239 239 239 239 239 240 242 243 243 245 248 251 254 258 261 264 267 269 271 274 276 278 280 281 283 284 286 288 290 291 293 294 294 294 293 292 292 294 294 295 295 294 293 293 292 291 290 288 287 288 288 287 287 287
217 218 220 221 222 222 223 224 224 225 225 226 227 228 228 229 229 230 231 232 233 234 234 234 234 234 235 235 236 237 239 241 241 240 241 240 240 242 243 244 246 249 252 256 259 263 265 268 270 272 274 277 279 281 283 284 286 288 290 291 292 294 296 296 296 296 295 295 296 297 297 297 297 296 295 294 292 291 289 288 287 287 287 287 286
219 220 221 223 223 224 225 225 226 226 226 227 229 229 230 230 230 230 231 232 233 234 234 234 235 235 235 236 238 239 239 241 242 241 241 241 240 241 244 246 248 251 255 257 261 264 267 270 273 275 278 280 282 284 285 286 288 291 292 292 294 296 298 298 299 299 298 298 300 300 299 299 298 298 298 297 295 294 292 291 289 288 287 286 286
221 221 222 223 224 225 226 226 227 227 227 228 229 230 231 231 231 232 232 233 234 234 235 235 236 237 237 238 239 240 240 241 242 242 241 241 241 242 245 248 251 253 256 259 262 266 269 272 275 278 281 283 284 286 288 289 291 292 293 294 295 298 299 300 302 303 303 303 303 303 301 301 300 300 299 298 297 296 295 294 292 291 289 288 286
221 222 223 223 224 225 226 227 228 228 227 227 228 230 230 231 232 233 234 235 235 235 236 237 237 238 239 239 240 241 241 241 241 241 241 242 243 244 246 250 253 256 258 261 265 268 271 274 276 279 282 283 285 287 289 291 292 293 294 296 297 299 301 302 304 304 304 304 303 302 302 302 301 301 300 300 299 299 298 296 295 293 292 290 288
222 223 223 224 226 227 228 228 228 228 227 227 228 229 230 232 233 234 235 236 237 237 237 237 238 239 240 240 241 241 241 241 241 241 242 242 244 245 248 251 254 257 260 263 266 269 271 274 276 279 282 284 287 289 291 292 294 295 296 298 299 301 302 303 304 305 305 305 304 303 303 303 303 303 302 302 302 301 300 299 298 296 294 293 291
223 224 225 226 227 228 229 230 230 230 229 229 229 230 231 232 233 235 236 237 238 239 238 238 239 240 240 241 241 241 241 240 241 242 243 243 245 248 250 253 255 258 260 263 266 269 271 273 276 280 283 286 289 291 292 294 296 297 298 299 300 302 303 305 306 307 307 307 306 306 306 306 306 306 306 306 305 305 304 302 301 299 298 296 294
224 225 226 227 228 228 229 230 231 232 232 232 232 232 232 233 234 235 236 237 239 240 239 238 239 239 240 241 241 240 240 240 241 243 245 246 248 249 251 253 254 257 260 263 266 268 271 274 278 281 285 288 290 292 294 295 297 298 299 300 302 303 305 306 308 308 309 309 309 308 308 308 309 309 309 309 308 307 306 305 304 303 302 300 298
226 226 226 227 228 228 228 229 230 232 233 233 234 235 235 235 235 235 236 237 238 238 238 238 238 238 239 239 239 239 240 241 242 244 246 248 249 251 252 254 255 257 260 262 265 269 272 276 280 283 285 288 290 293 294 296 298 299 300 302 304 305 307 308 309 310 310 311 311 310 310 310 310 310 310 310 309 308 308 308 307 306 305 303 300
229 228 228 228 228 229 229 229 230 231 233 234 235 235 236 236 236 236 235 235 236 236 237 237 237 237 237 237 237 238 239 241 243 244 246 248 249 251 253 254 256 257 260 263 266 270 274 277 280 283 286 288 291 293 295 297 299 301 303 304 306 307 309 310 311 312 312 312 312 312 312 312 312 311 311 311 310 310 310 309 308 308 307 305 302
232 231 229 228 228 229 229 229 229 230 231 233 234 235 236 236 237 237 237 237 237 237 237 237 238 238 238 237 237 238 240 242 243 244 246 247 248 250 252 254 256 258 260 263 267 271 274 278 281 284 287 289 291 294 296 299 301 303 304 306 307 309 311 312 313 314 314 314 315 315 314 313 313 313 313 312 312 312 312 311 310 309 308 307 306
235 233 231 230 229 229 230 230 230 230 231 232 233 235 236 237 237 238 238 239 240 240 239 239 240 240 240 240 240 240 241 242 242 243 244 246 248 250 252 254 256 259 261 264 269 272 276 279 283 285 287 289 292 295 298 300 302 304 305 307 309 311 312 314 315 316 316 317 317 316 315 314 314 314 314 314 314 314 314 314 313 312 311 310 310
237 234 232 230 230 230 230 231 231 232 233 234 235 236 237 238 239 239 239 240 241 241 241 241 241 240 240 241 241 242 241 241 241 242 243 245 247 250 252 254 257 259 262 266 270 274 277 280 282 285 287 290 293 296 298 300 302 304 306 308 310 312 314 316 317 317 318 318 318 318 316 315 315 315 316 316 316 317 317 317 316 315 314 314 314
237 234 232 231 230 230 230 231 231 232 233 235 236 237 238 238 240 241 241 241 241 242 241 241 240 240 240 240 241 241 241 240 240 242 243 245 248 250 253 255 258 262 265 269 271 275 277 280 282 285 288 290 293 295 298 300 302 304 307 309 311 313 316 317 318 319 320 320 320 319 318 317 317 317 317 318 319 320 319 319 318 317 317 317 317
237 234 232 231 230 230 230 231 231 232 233 234 236 237 237 238 239 241 241 241 241 241 242 242 241 241 241 241 240 241 241 240 241 243 245 247 248 250 253 257 261 264 267 269 271 274 278 280 283 285 287 290 293 295 297 300 303 306 308 310 312 314 316 318 318 319 321 321 321 320 320 319 319 319 320 321 322 322 322 322 321 320 319 319 320
237 235 234 232 231 231 231 231 231 233 234 235 237 238 238 237 238 238 240 240 241 241 242 243 242 241 241 241 240 239 239 239 241 243 245 247 249 251 255 259 263 266 268 270 272 275 278 280 283 285 287 290 292 295 298 302 304 306 308 310 312 315 317 318 319 320 321 321 321 322 322 322 321 322 322 323 324 325 326 326 326 325 323 322 323
238 236 234 233 232 232 232 232 232 233 235 236 237 238 237 237 237 238 239 240 241 241 241 240 239 239 240 240 240 239 239 239 240 242 245 248 251 254 257 260 263 266 269 272 274 276 278 280 282 284 287 290 293 296 300 302 304 306 308 310 312 314 316 318 319 320 321 321 322 323 323 323 323 324 325 325 326 328 328 329 330 330 329 328 327
240 238 236 235 234 233 233 233 233 234 235 236 237 237 237 237 237 239 239 240 240 240 239 238 238 238 239 240 240 240 240 240 242 245 247 249 251 254 257 260 263 266 269 272 274 276 278 280 283 285 288 291 295 298 300 302 304 306 308 310 312 314 316 317 318 319 320 321 321 323 324 324 325 326 327 327 329 331 331 332 334 336 336 337 337
241 240 238 236 235 233 233 234 234 234 235 236 236 236 237 237 238 238 238 239 240 240 239 239 238 238 239 240 241 242 242 243 244 247 248 249 251 255 259 262 264 267 269 271 273 276 279 281 284 287 290 293 295 298 299 301 304 306 308 309 312 314 315 316 318 319 320 320 321 322 324 325 326 327 328 329 332 334 335 337 339 341 343 346 349
242 241 239 236 234 233 233 234 234 234 235 236 236 236 236 235 236 236 237 238 239 240 240 239 239 239 240 242 243 244 244 244 245 247 249 251 253 257 260 263 265 267 269 271 274 277 280 282 285 288 291 293 295 297 299 301 304 306 307 309 311 313 315 316 317 319 319 319 320 321 323 325 327 329 331 332 334 336 339 341 343 344 347 351 353
243 240 238 236 235 234 233 234 234 235 235 236 236 235 234 233 233 234 236 237 238 238 238 239 240 240 239 239 241 242 242 243 245 247 250 253 255 258 260 262 265 267 270 273 275 278 281 284 287 289 291 293 295 297 299 302 303 305 307 308 311 312 314 315 317 318 318 319 319 320 322 324 327 329 332 334 335 337 340 344 346 347 350 352 354
243 241 238 236 235 235 235 235 235 235 235 236 235 233 233 234 234 234 236 237 239 239 239 239 241 240 238 238 239 241 243 245 247 248 250 253 256 258 261 263 266 269 272 274 277 280 282 284 287 289 291 293 295 297 299 301 302 304 306 307 309 311 313 314 315 316 317 318 318 319 320 323 326 329 331 333 334 336 339 343 347 349 351 352 354
244 243 240 238 236 235 235 235 235 235 234 235 235 234 235 235 236 236 238 239 240 240 239 238 239 241 241 241 241 242 244 246 248 249 252 254 257 260 263 266 268 271 273 276 278 280 282 284 286 288 290 292 294 296 298 300 301 303 305 307 308 310 311 312 313 315 316 316 317 318 319 321 325 327 329 330 332 333 335 339 342 345 348 350 351
244 243 242 240 238 236 235 234 234 234 234 234 235 236 236 236 235 236 237 238 238 238 238 238 239 242 244 244 242 243 245 247 249 251 253 256 259 262 265 267 270 272 274 276 278 280 282 284 286 288 290 292 294 296 297 299 300 302 304 306 307 309 309 310 311 313 314 314 316 317 318 320 322 324 326 327 329 331 333 335 337 339 342 344 346
244 243 242 240 239 238 237 235 233 233 234 234 235 236 236 235 234 234 235 236 237 238 238 239 242 244 245 245 245 245 247 249 251 253 256 259 261 264 266 269 271 272 274 276 279 280 282 284 286 288 290 292 293 295 296 298 300 301 303 305 306 306 306 307 309 310 312 312 313 315 316 318 319 320 322 323 326 328 331 333 333 333 334 335 335
244 242 241 239 237 237 239 239 236 233 233 233 234 234 234 233 234 235 236 237 238 239 240 241 243 244 245 246 247 249 250 252 254 257 259 261 264 266 268 270 272 274 275 277 279 281 283 284 286 288 289 291 293 294 296 297 299 300 302 303 304 304 304 304 306 308 309 310 310 312 313 315 316 317 319 320 322 324 326 328 329 330 330 330 330
243 241 240 239 237 236 236 238 238 237 234 233 233 234 235 235 235 236 237 238 239 241 242 244 245 246 246 248 250 251 253 255 258 260 262 265 267 269 270 272 273 275 277 278 280 281 283 284 286 287 289 290 292 293 295 297 298 300 301 301 302 302 302 302 303 305 306 307 307 307 309 310 312 313 315 316 317 319 321 322 323 324 325 326 326
245 242 241 240 239 236 235 235 237 238 237 236 235 235 237 237 236 236 238 239 241 243 244 245 246 247 249 251 252 254 257 259 262 264 266 268 269 270 272 274 275 277 278 279 281 282 283 284 285 287 288 289 291 292 294 296 298 299 299 299 299 300 300 300 301 303 304 305 304 304 305 306 308 309 310 311 312 314 315 316 317 317 317 317 316
247 245 243 243 241 239 237 236 236 237 236 235 234 234 236 237 238 238 240 241 243 244 245 246 247 250 252 253 256 258 260 262 264 266 268 270 271 272 273 275 276 278 279 280 281 282 283 284 285 286 287 289 290 292 294 296 296 297 297 298 298 298 299 299 300 301 303 303 303 303 303 304 304 305 306 307 308 308 309 310 311 311 310 310 309
249 247 245 244 244 243 241 239 238 237 236 236 237 238 239 240 241 241 242 243 244 245 246 247 249 251 253 255 258 261 262 263 265 267 269 271 272 273 274 275 277 278 279 280 281 282 283 284 285 287 288 289 290 291 293 294 295 295 296 296 297 298 298 299 299 300 302 302 302 302 302 303 302 302 303 303 304 304 304 304 305 305 305 304 304
251 249 246 244 243 243 242 240 240 239 239 239 240 241 241 241 242 242 243 244 245 246 247 249 251 253 254 256 259 261 262 263 265 267 269 271 272 273 274 275 276 278 279 280 281 282 284 285 286 287 288 289 290 291 292 293 293 294 294 295 295 297 297 298 298 299 301 301 301 300 300 300 300 301 301 300 300 300 300 300 300 300 299 299 298
251 249 246 244 242 242 242 241 240 241 240 240 240 241 241 242 242 243 244 245 246 247 249 251 253 254 256 258 260 262 263 264 266 268 270 271 272 273 274 275 277 278 279 280 281 282 283 284 285 286 288 289 290 290 291 291 292 293 293 294 295 296 296 297 298 298 299 299 298 297 297 297 298 298 299 298 298 298 297 297 296 295 295 295 294
251 249 247 245 242 241 241 242 241 241 240 239 239 240 242 242 243 245 246 247 249 251 252 253 255 256 258 260 262 264 265 267 268 269 270 271 272 273 275 276 277 278 279 280 281 282 283 284 285 286 287 288 289 289 289 289 290 291 293 294 294 295 296 297 297 298 298 297 296 295 295 295 296 297 297 297 297 296 295 294 293 292 292 292 291